Date String (YYYY-MM-DD hh:mm:ss) UTC,Instrument flags,absolute air pressure of the measurement (hPa),sample flow rate (lpm),inlet stack bypass flow (lpm),air temperature of the measurement (°C),ambient temperature measured by the external sensor (°C),aerosol sample conditioner tube jacket temperature (°C),OPC LED temperature (°C),internal box temperature (°C),relative humidity of the measurement (%),span deviation,mass concentration of particles derived from Lorenz-Mie calculation of OPC scattering (μg/m³),mass concentration of particles derived from Lorenz-Mie calculation of OPC scattering (μg/m³),mass concentration of particles derived from Lorenz-Mie calculation of OPC scattering (μg/m³)
DateTimeUTC,F1_M11,P_M11,Q1_M11,Q2_M11,T1_M11,T2_M11,T3_M11,T4_M11,T5_M11,U1_M11,ZSPAN_M11,X0_M11,X2_M11,X1_M11
2023-07-14 08:00:00,SystemResetWarning,0829.0,5.00,000.00,029.4,025.5,000.0,037.7,030.6,18.1,0000.0,0008.72,0003.57,0003.08
2023-07-14 08:01:00,SystemResetWarning,0829.0,5.01,000.00,029.3,025.7,000.0,037.7,030.5,17.9,0000.0,0008.30,0003.55,0003.04
2023-07-14 08:02:00,SystemResetWarning,0829.0,5.00,000.00,029.2,026.1,000.0,037.8,030.6,17.7,0000.0,0007.96,0003.51,0003.00
2023-07-14 08:03:00,SystemResetWarning,0829.0,5.00,000.00,029.2,026.5,000.0,037.8,030.7,17.6,0000.0,0007.45,0003.45,0002.95
2023-07-14 08:04:00,SystemResetWarning,0829.0,5.00,000.00,029.2,026.8,000.0,037.8,030.7,17.7,0000.0,0007.08,0003.47,0002.93
2023-07-14 08:05:00,SystemResetWarning,0829.0,4.99,000.00,029.3,027.1,000.0,037.8,030.8,17.4,0000.0,0007.61,0003.48,0002.92
2023-07-14 08:06:00,SystemResetWarning,0829.0,5.00,000.00,029.3,027.4,000.0,037.8,030.9,17.2,0000.0,0008.03,0003.48,0002.93
2023-07-14 08:07:00,SystemResetWarning,0829.1,5.00,000.00,029.3,027.6,000.0,037.8,030.9,17.2,0000.0,0008.08,0003.48,0002.91
2023-07-14 08:08:00,SystemResetWarning,0829.1,5.00,000.00,029.3,027.8,000.0,037.8,031.0,17.1,0000.0,0008.23,0003.49,0002.91
2023-07-14 08:09:00,SystemResetWarning,0829.1,5.00,000.00,029.4,027.9,000.0,037.8,031.0,17.1,0000.0,0008.21,0003.50,0002.93
2023-07-14 08:10:00,SystemResetWarning,0829.0,5.00,000.00,029.4,028.1,000.0,037.8,031.0,17.2,0000.0,0008.08,0003.47,0002.93
2023-07-14 08:11:00,SystemResetWarning,0829.1,5.00,000.00,029.4,028.2,000.0,037.8,031.1,17.3,0000.0,0008.33,0003.43,0002.91
2023-07-14 08:12:00,SystemResetWarning,0829.1,5.00,000.00,029.5,028.3,000.0,037.9,031.1,17.2,0000.0,0008.71,0003.41,0002.89
2023-07-14 08:13:00,SystemResetWarning,0829.1,5.00,000.00,029.5,028.3,000.0,037.9,031.1,17.0,0000.0,0010.64,0003.41,0002.89
2023-07-14 08:14:00,SystemResetWarning,0829.1,5.00,000.00,029.5,028.4,000.0,037.9,031.2,17.0,0000.0,0011.19,0003.42,0002.88
2023-07-14 08:15:00,SystemResetWarning,0829.1,5.00,000.00,029.6,028.2,000.0,037.9,031.2,17.3,0000.0,0011.29,0003.40,0002.87
2023-07-14 08:16:00,SystemResetWarning,0829.1,5.00,000.00,029.5,026.4,000.0,037.8,031.0,17.0,0000.0,0010.94,0003.38,0002.84
2023-07-14 08:17:00,SystemResetWarning,0829.1,5.01,000.00,029.5,025.4,000.0,037.7,030.8,16.9,0000.0,0010.18,0003.36,0002.81
2023-07-14 08:18:00,SystemResetWarning,0829.1,5.00,000.00,029.4,025.5,000.0,037.7,030.6,16.9,0000.0,0010.68,0003.36,0002.81
2023-07-14 08:19:00,SystemResetWarning,0829.1,5.00,000.00,029.3,025.8,000.0,037.7,030.6,16.8,0000.0,0010.63,0003.37,0002.80
2023-07-14 08:20:00,SystemResetWarning,0829.1,5.00,000.00,029.3,026.2,000.0,037.8,030.6,16.9,0000.0,0010.68,0003.34,0002.79
2023-07-14 08:21:00,SystemResetWarning,0829.2,5.00,000.00,029.3,026.6,000.0,037.8,030.7,16.5,0000.0,0010.67,0003.35,0002.78
2023-07-14 08:22:00,SystemResetWarning,0829.3,4.99,000.00,029.3,026.9,000.0,037.8,030.8,17.2,0000.0,0010.64,0003.38,0002.78
2023-07-14 08:23:00,SystemResetWarning,0829.3,4.99,000.00,029.3,027.2,000.0,037.8,030.8,18.1,0000.0,0009.95,0003.37,0002.77
2023-07-14 08:24:00,SystemResetWarning,0829.3,5.00,000.00,029.3,027.5,000.0,037.8,030.9,18.3,0000.0,0007.89,0003.35,0002.76
2023-07-14 08:25:00,SystemResetWarning,0829.4,5.00,000.00,029.3,027.7,000.0,037.8,031.0,18.6,0000.0,0007.34,0003.34,0002.76
2023-07-14 08:26:00,SystemResetWarning,0829.3,5.00,000.00,029.3,027.8,000.0,037.8,031.0,19.0,0000.0,0007.18,0003.34,0002.76
2023-07-14 08:27:00,SystemResetWarning,0829.3,5.01,000.00,029.4,028.0,000.0,037.8,031.0,19.0,0000.0,0007.05,0003.34,0002.76
2023-07-14 08:28:00,SystemResetWarning,0829.3,4.99,000.00,029.4,028.1,000.0,037.9,031.1,18.6,0000.0,0007.18,0003.37,0002.78
2023-07-14 08:29:00,SystemResetWarning,0829.3,4.99,000.00,029.5,028.2,000.0,037.9,031.1,18.4,0000.0,0007.02,0003.39,0002.79
2023-07-14 08:30:00,SystemResetWarning,0829.3,5.01,000.00,029.5,028.3,000.0,037.9,031.2,18.2,0000.0,0007.35,0003.37,0002.79
2023-07-14 08:31:00,SystemResetWarning,0829.3,5.02,000.00,029.5,028.4,000.0,037.9,031.2,17.9,0000.0,0007.14,0003.38,0002.78
2023-07-14 08:32:00,SystemResetWarning,0829.4,4.99,000.00,029.6,028.4,000.0,038.0,031.2,17.8,0000.0,0007.04,0003.37,0002.78
2023-07-14 08:33:00,SystemResetWarning,0829.3,5.00,000.00,029.6,028.4,000.0,038.0,031.3,17.8,0000.0,0007.62,0003.33,0002.78
2023-07-14 08:34:00,SystemResetWarning,0829.3,4.98,000.00,029.6,026.8,000.0,037.9,031.0,17.9,0000.0,0007.98,0003.33,0002.78
2023-07-14 08:35:00,SystemResetWarning,0829.3,5.00,000.00,029.5,025.5,000.0,037.8,030.8,18.0,0000.0,0007.93,0003.31,0002.80
2023-07-14 08:36:00,SystemResetWarning,0829.3,5.01,000.00,029.4,025.5,000.0,037.7,030.6,18.2,0000.0,0008.30,0003.32,0002.81
2023-07-14 08:37:00,SystemResetWarning,0829.4,5.00,000.00,029.3,025.8,000.0,037.8,030.6,18.6,0000.0,0008.47,0003.34,0002.83
2023-07-14 08:38:00,SystemResetWarning,0829.3,5.00,000.00,029.3,026.2,000.0,037.8,030.6,18.6,0000.0,0008.54,0003.37,0002.84
2023-07-14 08:39:00,SystemResetWarning,0829.3,4.99,000.00,029.3,026.6,000.0,037.8,030.7,18.6,0000.0,0008.54,0003.39,0002.85
2023-07-14 08:40:00,SystemResetWarning,0829.3,4.99,000.00,029.3,026.9,000.0,037.8,030.8,18.5,0000.0,0008.52,0003.43,0002.87
2023-07-14 08:41:00,SystemResetWarning,0829.3,5.00,000.00,029.3,027.2,000.0,037.8,030.9,18.3,0000.0,0008.06,0003.43,0002.87
2023-07-14 08:42:00,SystemResetWarning,0829.4,5.00,000.00,029.3,027.5,000.0,037.8,030.9,18.3,0000.0,0008.05,0003.43,0002.88
2023-07-14 08:43:00,SystemResetWarning,0829.4,5.01,000.00,029.3,027.7,000.0,037.8,030.9,18.2,0000.0,0008.13,0003.46,0002.89
2023-07-14 08:44:00,SystemResetWarning,0829.5,5.00,000.00,029.4,027.9,000.0,037.9,031.0,18.3,0000.0,0008.32,0003.48,0002.91
2023-07-14 08:45:00,SystemResetWarning,0829.5,5.00,000.00,029.4,028.0,000.0,037.9,031.0,18.3,0000.0,0007.74,0003.49,0002.92
2023-07-14 08:46:00,SystemResetWarning,0829.5,5.00,000.00,029.4,028.1,000.0,037.9,031.1,18.2,0000.0,0008.13,0003.50,0002.93
2023-07-14 08:47:00,SystemResetWarning,0829.5,4.99,000.00,029.5,028.2,000.0,037.9,031.1,17.9,0000.0,0007.87,0003.49,0002.94
2023-07-14 08:48:00,SystemResetWarning,0829.5,5.01,000.00,029.5,028.3,000.0,037.9,031.2,17.8,0000.0,0007.62,0003.49,0002.94
2023-07-14 08:49:00,SystemResetWarning,0829.5,5.01,000.00,029.5,028.4,000.0,037.9,031.2,17.6,0000.0,0007.59,0003.46,0002.93
2023-07-14 08:50:00,SystemResetWarning,0829.4,5.01,000.00,029.6,028.4,000.0,038.0,031.2,17.5,0000.0,0007.54,0003.44,0002.94
2023-07-14 08:51:00,SystemResetWarning,0829.4,4.99,000.00,029.6,028.5,000.0,038.0,031.3,17.4,0000.0,0007.72,0003.43,0002.94
2023-07-14 08:52:00,SystemResetWarning,0829.4,4.99,000.00,029.6,027.0,000.0,037.9,031.1,17.3,0000.0,0008.02,0003.39,0002.94
2023-07-14 08:53:00,SystemResetWarning,0829.4,5.01,000.00,029.5,025.5,000.0,037.8,030.9,17.4,0000.0,0008.05,0003.40,0002.95
2023-07-14 08:54:00,SystemResetWarning,0829.4,5.00,000.00,029.4,025.4,000.0,037.7,030.7,17.5,0000.0,0008.09,0003.42,0002.96
2023-07-14 08:55:00,SystemResetWarning,0829.3,4.99,000.00,029.3,025.7,000.0,037.8,030.6,18.1,0000.0,0007.85,0003.45,0002.96
2023-07-14 08:56:00,SystemResetWarning,0829.4,5.00,000.00,029.3,026.1,000.0,037.8,030.6,18.0,0000.0,0007.99,0003.47,0002.97
2023-07-14 08:57:00,SystemResetWarning,0829.3,5.01,000.00,029.3,026.5,000.0,037.8,030.7,18.4,0000.0,0007.96,0003.46,0002.96
2023-07-14 08:58:00,SystemResetWarning,0829.5,4.99,000.00,029.3,026.8,000.0,037.8,030.8,18.0,0000.0,0008.61,0003.48,0002.95
2023-07-14 08:59:00,SystemResetWarning,0829.4,4.99,000.00,029.3,027.1,000.0,037.8,030.8,17.4,0000.0,0008.77,0003.47,0002.94
